User: anonymous   Login
Location: Caltech
(34.1382°N, 118.1253°W)
Time: 16:36:29
(UTC-07:00)
Language:

Gurwin Techsat 1B - Orbit

View from above orbital plane
View from above orbital plane
View from above satellite
View from above satellite

Ground track
Ground track

The orbit data is extracted from the following two-line orbital elements,

1 25397U 98043D   17228.42747789 -.00000018  00000-0  10886-4 0  9995
2 25397  98.6126 169.5042 0001585 139.1243 221.0055 14.23626354992369
Epoch (UTC): 16 August 2017 10:15:34
Eccentricity: 0.0001585
inclination: 98.6126°
perigee height: 812 km
apogee height: 814 km
right ascension of ascending node: 169.5042°
argument of perigee: 139.1243°
revolutions per day: 14.23626354
mean anomaly at epoch: 221.0055°
orbit number at epoch: 99236

The dashed part of the orbit path shows where the satellite is in the earth's shadow,  

DLR